Hourly Data Report for August 24, 2004

TORONTO CITY
ONTARIO

43°40'00.000" N
79°24'00.000" W
112.50 m
6158355
71508
XTO

Download Data

Hourly Data (August 2004)
Hourly Data Report for August 24, 2004
TIME
LST
Temp Definition
°C
Dew Point Definition
°C
Rel Hum Definition
%
Precip. Amount Definition
mm

Wind Dir Definition
10's deg

Wind Spd Definition
km/h
Visibility Definition
km
Stn Press Definition
kPa
Hmdx Definition


Wind Chill Definition


Weather Definition


00:00 17.3 9.9 62   LegendMM LegendMM LegendMM 100.64     LegendNANA
01:00 16.4 10.2 67   LegendMM LegendMM LegendMM 100.68     LegendNANA
02:00 15.4 9.9 70   LegendMM LegendMM LegendMM 100.69     LegendNANA
03:00 14.3 9.6 73   LegendMM LegendMM LegendMM 100.74     LegendNANA
04:00 13.7 9.4 75   LegendMM LegendMM LegendMM 100.77     LegendNANA
05:00 13.1 9.2 77   LegendMM LegendMM LegendMM 100.84     LegendNANA
06:00 12.8 9.1 78   LegendMM LegendMM LegendMM 100.87     LegendNANA
07:00 13.3 9.5 78   LegendMM LegendMM LegendMM 100.96     LegendNANA
08:00 14.5 10.2 75   LegendMM LegendMM LegendMM 100.96     LegendNANA
09:00 15.1 11.2 78   LegendMM LegendMM LegendMM 100.99     LegendNANA
10:00 16.1 12.5 79   LegendMM LegendMM LegendMM 100.98     LegendNANA
11:00 16.8 13.3 80   LegendMM LegendMM LegendMM 100.93     LegendNANA
12:00 17.9 13.8 77   LegendMM LegendMM LegendMM 100.92     LegendNANA
13:00 17.8 12.8 73   LegendMM LegendMM LegendMM 100.87     LegendNANA
14:00 18.3 12.1 67   LegendMM LegendMM LegendMM 100.82     LegendNANA
15:00 19.5 12.9 66   LegendMM LegendMM LegendMM 100.78     LegendNANA
16:00 18.9 11.8 63   LegendMM LegendMM LegendMM 100.76     LegendNANA
17:00 18.4 10.7 61   LegendMM LegendMM LegendMM 100.74     LegendNANA
18:00 18.2 12.4 69   LegendMM LegendMM LegendMM 100.70     LegendNANA
19:00 17.8 13.0 73   LegendMM LegendMM LegendMM 100.69     LegendNANA
20:00 17.8 12.4 71   LegendMM LegendMM LegendMM 100.71     LegendNANA
21:00 17.9 12.9 73   LegendMM LegendMM LegendMM 100.74     LegendNANA
22:00 17.9 13.8 77   LegendMM LegendMM LegendMM 100.69     LegendNANA
23:00 18.2 14.5 79   LegendMM LegendMM LegendMM 100.69     LegendNANA

Notes on Data Quality.

Legend

  • E = Estimated
  • M = Missing
  • NA = Not Available*
  • [empty] = Indicates an unobserved value
Date modified: